Regional Weather Roundup
Issued by NWS Kansas City/Pleasant Hill, MO

Home | Current Version | Previous Version | Graphics & Text | Print | Product List | Glossary Off
Versions: 1 2 3 4 5 6 7 8 9 10 11 12 13 14 15 16 17 18 19 20 21 22 23 24 25 26 27 28 29 30 31 32 33 34 35 36 37 38 39 40 41 42 43 44 45 46 47 48 49 50

000
ASUS43 KEAX 300710
RWREAX

WEATHER ROUNDUP FOR EASTERN KANSAS AND NORTHWEST MISSOURI
NATIONAL WEATHER SERVICE KANSAS CITY/PLEASANT HILL MO
200 AM CDT WED JUL 30 2014

KSZ040-057-103>105-MOZ028-029-037-043-300800-
...KANSAS CITY METROPOLITAN AREA...

CITY           SKY/WX    TMP DP  RH WIND       PRES   REMARKS
K.C. INTL      PTCLDY    67  59  75 CALM      30.11S
K.C. DOWNTOWN  MOCLDY    71  59  65 NE5       30.10S
LEES SUMMIT    MOCLDY    68  58  70 CALM      30.11F
OLATHE - IXD   CLOUDY    71  58  63 E3        30.11F
OLATHE - OJC   CLOUDY    68  61  78 CALM      30.10F
LAWRENCE       CLOUDY    69  62  78 S3        30.10F

$$

MOZ001>008-011>017-020>025-030>033-038>040-044>046-053-054-300800-
...NORTHERN AND CENTRAL MISSOURI...

CITY           SKY/WX    TMP DP  RH WIND       PRES   REMARKS
ST. JOSEPH     PTCLDY    59  57  93 CALM      30.11F
MOSBY          MOSUNNY   61  61 100 CALM      30.10S
WHITEMAN AFB   CLEAR     61  53  74 CALM      30.09S
CLINTON        PTCLDY    63  61  94 CALM      30.10S
SEDALIA        CLEAR     65  57  75 CALM      30.10F
WARSAW         NOT AVBL
MARSHALL       CLEAR     64  63  94 CALM      30.10F
CHILLICOTHE      N/A     61  58  90 CALM      30.11F
MOBERLY        MOCLDY    63  55  77 CALM      30.10F
KIRKSVILLE     CLOUDY    60  58  92 W3        30.11F

$$

MOZ041-047>049-056>058-063>065-088>090-097-300800-
...EASTERN AND SOUTHERN MISSOURI...

CITY           SKY/WX    TMP DP  RH WIND       PRES   REMARKS
ST. LOUIS INTL MOCLDY    67  57  70 CALM      30.09F
SPIRIT OF STL  CLOUDY    63  59  87 CALM      30.08F
COLUMBIA       MOCLDY    64  56  75 SE5       30.10F
JEFFERSON CITY CLEAR     62  57  83 CALM      30.09F
MEXICO         CLOUDY   N/A N/A N/A CALM      30.10F
HANNIBAL       CLEAR     61  54  77 CALM      30.09F
ROLLA          CLOUDY    68  54  60 E6        30.09F
LEBANON        CLEAR     66  55  68 CALM      30.11S
OSAGE BEACH    CLEAR     61  55  82 CALM      30.10S
SPRINGFIELD    CLOUDY    71  58  63 CALM      30.09F
BRANSON        PTCLDY    68  59  73 SW3       30.10F
NEVADA         CLOUDY    68  64  88 CALM      30.10F
JOPLIN         CLOUDY    67  63  87 CALM      30.09F
WEST PLAINS    PTCLDY    64  58  80 CALM      30.11F
MALDEN         CLEAR     66  57  72 CALM      30.10F

$$

IAZ060-094-KSZ022-034>040-054-083-096-NEZ052-066-093-300800-
...KANSAS...SOUTHEAST NEBRASKA AND IOWA...

CITY           SKY/WX    TMP DP  RH WIND       PRES   REMARKS
TOPEKA         CLOUDY    71  62  73 CALM      30.10F
MANHATTAN      CLOUDY    72  59  63 E6        30.10F
EMPORIA        CLOUDY    65  62  90 CALM      30.10F
CHANUTE        CLOUDY    67  63  87 CALM      30.09F
WICHITA        MOCLDY    71  61  70 SE7       30.07F
OMAHA          PTCLDY    59  56  89 N3        30.13F
LINCOLN        CLOUDY    65  57  75 N5        30.14F
FALLS CITY     PTCLDY    63  57  81 CALM      30.11F
LAMONI         CLEAR     58  54  86 NW5       30.12S
DES MOINES     CLEAR     62  56  80 CALM      30.10S

$$



USA.gov is the U.S. government's official web portal to all federal, state and local government web resources and services.